Westerly, RI

3:54 PM EST on February 20, 2017 (GMT -0500)
Westerly State

Weather History for KWST - October, 2012

Change the Weather History Date:

Monday, October 8, 2012

  Actual Average (KGON) Record (KGON)
Temperature  
Mean Temperature 48 °F -  
Max Temperature 55 °F 64 °F 80 °F (2007)
Min Temperature 41 °F 44 °F 33 °F (1964)
Degree Days  
Heating Degree Days 17    
Moisture  
Dew Point 44 °F    
Average Humidity 82    
Maximum Humidity 100    
Minimum Humidity 59    
Precipitation  
Precipitation 0.01 in - - ()
Sea Level Pressure  
Sea Level Pressure 30.22 in    
Wind  
Wind Speed 2 mph (NNW)    
Max Wind Speed 8 mph    
Max Gust Speed -    
Visibility 10 miles    
Events      
Averages and records for this station are not official NWS values.
T = Trace of Precipitation, MM = Missing Value Source: NWS Daily Summary

Daily Weather History Graph

Daily Weather History Graph

Search for Another Location

Airport or City:

Trip Planner

Search our weather history database for the weather conditions in past years. The results will help you decide how hot, cold, wet, or windy it might be!

Date:

Astronomy

Oct. 08, 2012 Rise Set
Actual Time 6:51 AM EDT 6:16 PM EDT
Civil Twilight 6:24 AM EDT 6:44 PM EDT
Nautical Twilight 5:52 AM EDT 7:16 PM EDT
Astronomical Twilight 5:20 AM EDT 7:48 PM EDT
Moon No Moon Rise 2:08 PM EDT (10/8)
Length of Visible Light 12h 20m
Length of Day
11h 24m
Waning Gibbous, 46% of the Moon is Illuminated
Oct 8
Waning Gibbous
Oct 15
New
Oct 21
First Quarter
Oct 29
Full
Nov 6
Last Quarter

Hourly Weather History & Observations

Time (EDT) Temp. Windchill Dew Point Humidity Pressure Visibility Wind Dir Wind Speed Gust Speed Precip Events Conditions
12:53 AM 48.0 °F - 46.9 °F 96% 30.10 in 10.0 mi Calm Calm - 0.01 in   Overcast
1:53 AM 48.0 °F - 46.0 °F 93% 30.10 in 10.0 mi NW 3.5 mph - N/A   Overcast
2:53 AM 45.0 °F - 44.1 °F 97% 30.10 in 10.0 mi Calm Calm - N/A   Clear
3:53 AM 44.1 °F - 43.0 °F 96% 30.11 in 9.0 mi Calm Calm - N/A   Clear
4:53 AM 43.0 °F 41.3 °F 42.1 °F 97% 30.13 in 8.0 mi NNW 3.5 mph - N/A   Clear
5:53 AM 41.0 °F - 41.0 °F 100% 30.15 in 7.0 mi Calm Calm - N/A   Clear
6:53 AM 41.0 °F - 39.9 °F 96% 30.16 in 4.0 mi Calm Calm - N/A   Clear
7:53 AM 45.0 °F 42.6 °F 43.0 °F 93% 30.19 in 10.0 mi North 4.6 mph - N/A   Clear
8:53 AM 48.9 °F - 45.0 °F 86% 30.23 in 10.0 mi NNW 6.9 mph - N/A   Clear
9:53 AM 53.1 °F - 44.1 °F 71% 30.24 in 10.0 mi North 8.1 mph - N/A   Clear
10:53 AM 54.0 °F - 41.0 °F 62% 30.25 in 10.0 mi North 8.1 mph - N/A   Clear
11:53 AM 54.0 °F - 41.0 °F 62% 30.25 in 10.0 mi North 5.8 mph - N/A   Clear
12:53 PM 55.9 °F - 42.1 °F 60% 30.25 in 10.0 mi Variable 3.5 mph - N/A   Clear
1:53 PM 55.0 °F - 41.0 °F 59% 30.27 in 10.0 mi SSW 5.8 mph - N/A   Partly Cloudy
2:53 PM 54.0 °F - 41.0 °F 62% 30.26 in 10.0 mi SW 3.5 mph - N/A   Partly Cloudy
3:53 PM 54.0 °F - 41.0 °F 62% 30.25 in 10.0 mi SSW 3.5 mph - N/A   Mostly Cloudy
4:53 PM 54.0 °F - 42.1 °F 64% 30.28 in 10.0 mi Calm Calm - N/A   Scattered Clouds
5:53 PM 53.1 °F - 45.0 °F 74% 30.29 in 10.0 mi Calm Calm - N/A   Overcast
6:53 PM 51.1 °F - 46.9 °F 86% 30.30 in 10.0 mi Calm Calm - N/A   Overcast
7:53 PM 51.1 °F - 48.0 °F 89% 30.30 in 10.0 mi Calm Calm - N/A   Overcast
8:53 PM 50.0 °F - 46.9 °F 89% 30.30 in 10.0 mi Calm Calm - N/A   Mostly Cloudy
9:53 PM 48.9 °F - 46.9 °F 93% 30.30 in 10.0 mi North 3.5 mph - N/A   Clear
10:53 PM 48.9 °F - 46.0 °F 90% 30.28 in 10.0 mi NE 3.5 mph - N/A   Scattered Clouds
11:53 PM 48.0 °F - 46.0 °F 93% 30.27 in 10.0 mi Calm Calm - N/A   Clear